[[{"header":{"parameterUnit":"m.s-1","parameterCategory":1,"la1":30.2992,"la2":30.254,"lo1":-89.0895,"lo2":-89.0443,"dy":0.0025,"dx":0.0025,"nx":19,"ny":19,"refTime":"2026-05-08T21:00:00:Z","depth":0,"parameterNumber":2,"parameterNumberName":"U-component_of_WINDS"},"data":[0,0,0,-1.4357,-1.4357,-1.4345,-1.4345,-1.4339,-1.4339,0,0,0,0,0,0,0,0,0,0,0,-1.4366,-1.4366,-1.4357,-1.4357,-1.4345,-1.4345,-1.4339,-1.4339,0,0,0,0,0,0,0,0,0,0,0,-1.4366,-1.4366,-1.4366,-1.4357,-1.4345,-1.4345,-1.4339,-1.4345,0,0,0,0,0,0,0,0,0,0,-1.4355,-1.4368,-1.4366,-1.4366,-1.4357,-1.4345,-1.4345,-1.4345,-1.4345,-1.4349,0,-1.4353,0,-1.4346,-1.434,-1.434,0,0,0,-1.4353,-1.4368,-1.436,-1.4366,-1.4357,-1.4345,-1.4349,-1.4345,-1.4344,-1.4348,-1.4353,-1.4352,-1.4346,-1.434,-1.434,-1.4374,-1.4374,0,0,-1.4354,-1.4366,-1.4361,-1.436,-1.4362,-1.435,-1.4349,-1.4344,-1.435,-1.4353,-1.4352,-1.4346,-1.434,-1.434,-1.4374,-1.4374,0,0,0,-1.4358,-1.4367,-1.4359,-1.4361,-1.4358,-1.4349,-1.4349,-1.4351,-1.4347,-1.4352,-1.4346,-1.434,-1.434,-1.4373,-1.4374,-1.4402,0,0,0,-1.4358,-1.4369,-1.4359,-1.4367,-1.4358,-1.4354,-1.4355,-1.4347,-1.4346,-1.4346,-1.434,-1.434,-1.4373,-1.4374,-1.4401,-1.4414,0,0,0,-1.4365,-1.437,-1.437,-1.4368,-1.4363,-1.4354,-1.435,-1.4347,-1.4343,-1.434,-1.434,-1.4373,-1.4374,-1.4399,-1.4411,-1.4427,0,0,0,-1.4375,-1.4395,-1.4371,-1.4391,-1.4363,-1.4371,-1.4349,-1.4355,-1.4356,-1.434,-1.4373,-1.4374,-1.4399,-1.441,-1.4425,-1.4442,-1.445,0,0,-1.4407,-1.4399,-1.4411,-1.4388,-1.4404,-1.4372,-1.4392,-1.4381,-1.437,-1.4374,-1.4374,-1.4401,-1.4411,-1.4427,-1.4491,-1.4497,0,0,0,-1.4425,-1.4433,-1.4435,-1.4436,-1.4428,-1.4423,-1.4407,-1.4403,-1.4406,-1.4374,-1.4411,-1.4416,-1.4425,-1.4432,-1.4438,-1.4444,-1.4378,-1.4378,-1.4378,-1.4489,-1.4473,-1.4491,-1.4474,-1.4476,-1.446,-1.446,-1.4453,-1.4436,-1.4445,-1.4446,-1.4487,-1.4496,-1.45,-1.4508,-1.4454,-1.4454,-1.4454,-1.4454,-1.4535,-1.4544,-1.4523,-1.4532,-1.4517,-1.4525,-1.4511,-1.45,-1.4505,-1.4485,-1.4492,-1.4471,-1.4508,-1.4514,-1.4456,-1.4456,-1.4455,-1.4455,-1.4455,-1.4575,-1.4577,-1.4572,-1.4573,-1.4575,-1.4558,-1.4565,-1.455,-1.4536,-1.4543,-1.4543,-1.4542,-1.454,-1.4544,-1.4544,-1.4544,-1.4544,-1.4544,-1.4544,-1.4618,-1.4612,-1.4619,-1.4613,-1.4613,-1.461,-1.4596,-1.4595,-1.459,-1.4579,-1.4579,-1.4563,-1.4514,-1.4503,-1.4547,-1.4546,-1.4546,-1.4546,-1.4546,-1.4671,-1.4657,-1.4668,-1.4668,-1.4661,-1.4665,-1.4646,-1.4646,-1.4643,-1.4647,-1.463,-1.4597,-1.4587,-1.4583,-1.4573,-1.4633,-1.4633,-1.4633,-1.4633,-1.4705,-1.4699,-1.4708,-1.4708,-1.4707,-1.4691,-1.4706,-1.4696,-1.4683,-1.468,-1.467,-1.4656,-1.4652,-1.4645,-1.4639,-1.463,-1.4702,-1.4702,-1.4702,-1.4737,-1.4731,-1.4745,-1.4732,-1.4726,-1.4721,-1.4734,-1.4737,-1.4719,-1.4705,-1.4678,-1.4675,-1.4652,-1.4646,-1.4631,-1.4622,-1.4604,0,0]},{"header":{"parameterUnit":"m.s-1","parameterCategory":1,"la1":30.2992,"la2":30.254,"lo1":-89.0895,"lo2":-89.0443,"dy":0.0025,"dx":0.0025,"nx":19,"ny":19,"refTime":"2026-05-08T21:00:00:Z","depth":0,"parameterNumber":3,"parameterNumberName":"V-component_of_WINDS"},"data":[0,0,0,3.473,3.4731,3.4728,3.4728,3.4741,3.4741,0,0,0,0,0,0,0,0,0,0,0,3.474,3.4741,3.473,3.4731,3.4729,3.4728,3.4741,3.4741,0,0,0,0,0,0,0,0,0,0,0,3.474,3.4741,3.4741,3.4731,3.4729,3.4728,3.4741,3.4737,0,0,0,0,0,0,0,0,0,0,3.4736,3.4754,3.474,3.4741,3.4731,3.4729,3.4728,3.4736,3.4737,3.4748,0,3.4761,0,3.4751,3.4743,3.4743,0,0,0,3.4724,3.4754,3.4745,3.4741,3.4731,3.4729,3.4728,3.4737,3.4737,3.4749,3.4761,3.4761,3.4751,3.4743,3.4743,3.4833,3.4833,0,0,3.4724,3.4745,3.4745,3.4746,3.4747,3.4728,3.4728,3.4737,3.475,3.4761,3.4761,3.4752,3.4743,3.4743,3.4832,3.4833,0,0,0,3.4729,3.4745,3.4736,3.4746,3.4744,3.4728,3.4728,3.475,3.4745,3.4761,3.4752,3.4743,3.4744,3.4831,3.4832,3.4891,0,0,0,3.4729,3.4748,3.4736,3.4749,3.4745,3.4747,3.4741,3.4745,3.4745,3.4752,3.4743,3.4744,3.483,3.4832,3.4888,3.4915,0,0,0,3.4737,3.4749,3.4752,3.475,3.475,3.4747,3.4742,3.4744,3.474,3.4743,3.4744,3.483,3.4831,3.4884,3.491,3.4947,0,0,0,3.4752,3.4802,3.4753,3.4805,3.475,3.4783,3.4742,3.4765,3.4774,3.4743,3.483,3.4832,3.4883,3.4907,3.4944,3.4983,3.5001,0,0,3.4827,3.4812,3.4841,3.4797,3.4844,3.4781,3.4837,3.4825,3.4805,3.4825,3.4827,3.4889,3.491,3.4946,3.509,3.5104,0,0,0,3.4871,3.4893,3.4901,3.4912,3.4905,3.4902,3.4879,3.4875,3.4891,3.482,3.491,3.4922,3.4943,3.4961,3.4973,3.499,3.4841,3.4841,3.484,3.5007,3.4981,3.5028,3.5003,3.5013,3.4991,3.4998,3.4989,3.4957,3.498,3.4986,3.5076,3.5098,3.5107,3.5125,3.5002,3.5003,3.5003,3.5003,3.5115,3.5143,3.5102,3.5134,3.5106,3.5132,3.5114,3.5091,3.5112,3.5068,3.5085,3.5042,3.5123,3.5138,3.5007,3.5006,3.5006,3.5006,3.5005,3.5203,3.5212,3.5206,3.5221,3.5235,3.5207,3.523,3.5203,3.5177,3.5194,3.5199,3.5198,3.5195,3.5198,3.5198,3.5199,3.5199,3.5199,3.5199,3.5296,3.5289,3.5312,3.531,3.5315,3.5317,3.5297,3.53,3.5298,3.5276,3.5276,3.5245,3.5135,3.5109,3.5204,3.5203,3.5203,3.5202,3.5202,3.5419,3.5388,3.5423,3.5428,3.5425,3.5443,3.5408,3.5418,3.5417,3.543,3.5395,3.5318,3.53,3.529,3.5269,3.5399,3.5399,3.5399,3.5399,3.5495,3.5483,3.5515,3.5525,3.5532,3.5505,3.5547,3.5532,3.5512,3.551,3.5487,3.5456,3.5447,3.5435,3.5422,3.5401,3.5562,3.5562,3.5563,3.557,3.5559,3.56,3.558,3.5576,3.5574,3.5614,3.5628,3.5597,3.5569,3.5509,3.5502,3.5451,3.5435,3.5407,3.5387,3.5349,0,0]}]]